Home > Weather > Saint John's > Past weeks

Flag for Antigua and Barbuda Weather for the Past 2 Weeks in Saint John's, Antigua and Barbuda

Now
81 °F

Passing clouds.


Feels Like: 83 °F
Forecast: 75 / 81 °F
Wind: 14 mph from East

Location: Vc Bird International Antigua Airport

Current Time: Feb 11, 2016 at 11:22:35 AM

Latest Report: Feb 11, 2016 at 11:00 AM


Visibility: N/A

Pressure: 30.12 "Hg

Humidity: 66%

Dew point: 68 °F

Location of Saint John'sLocation

Historic Weather in Saint John's — Graph

°F

Saint John's Temperature Yesterday

Maximum temperature yesterday: 84 °F (at 2:00 PM)
Minimum temperature yesterday: 77 °F (at 12:00 AM)
Average temperature yesterday: 79 °F

High & Low Weather Summary for the Past Weeks

 TemperatureHumidityPressure
High84 °F (Feb 6, 11:00 AM)94% (Jan 29, 4:25 PM)30.15 "Hg (Jan 29, 4:25 PM)
Low68 °F (Feb 5, 2:00 AM)54% (Feb 4, 1:00 PM)29.86 "Hg (Jan 28, 9:16 AM)
Average78 °F74%30.03 "Hg
* Reported Jan 27 10:00 AM — Feb 11 10:00 AM, Saint John's, Weather by CustomWeather, © 2016

Note: Actual official high and low records may vary slightly from our data, if they occured in-between our weather recording intervals... More about our weather records

Advertising

Saint John's Weather History for the Previous 24 Hours

 ConditionsComfort  
Time TempWeatherWind HumidityBarometerVisibility
10:00 AM
Thu, Feb 11
81 °FScattered clouds.12 mph66%30.12 "HgN/A
9:00 AM81 °FBroken clouds.10 mph66%30.12 "HgN/A
8:00 AM79 °FBroken clouds.10 mph70%30.09 "HgN/A
7:00 AM77 °FBroken clouds.8 mph74%30.07 "HgN/A
6:00 AM77 °FPassing clouds.8 mph74%30.07 "HgN/A
5:00 AM77 °FPassing clouds.9 mph74%30.07 "HgN/A
4:00 AM77 °FPassing clouds.8 mph74%30.04 "HgN/A
3:00 AM75 °FPassing clouds.7 mph78%30.07 "HgN/A
2:00 AM77 °FPassing clouds.8 mph74%30.07 "HgN/A
1:00 AM77 °FPassing clouds.9 mph74%30.07 "HgN/A
12:00 AM77 °FPassing clouds.9 mph74%30.09 "HgN/A
11:00 PM
Wed, Feb 10
77 °FPassing clouds.12 mph74%30.09 "HgN/A
10:00 PM77 °FPassing clouds.10 mph74%30.09 "HgN/A
9:00 PM77 °FPassing clouds.10 mph69%30.09 "HgN/A
8:00 PM77 °FPassing clouds.10 mph74%30.07 "HgN/A
7:00 PM77 °FPassing clouds.9 mph69%30.07 "HgN/A
6:00 PM79 °FPassing clouds.8 mph65%30.07 "HgN/A
5:00 PM81 °FPassing clouds.10 mph62%30.07 "HgN/A
4:00 PM81 °FPassing clouds.12 mph70%30.04 "HgN/A
3:00 PM81 °FPartly sunny.13 mph66%30.04 "HgN/A
2:00 PM84 °FPassing clouds.12 mph55%30.07 "HgN/A
1:00 PM82 °FPassing clouds.13 mph62%30.07 "HgN/A
12:00 PM82 °FScattered clouds.13 mph62%30.09 "HgN/A
11:00 AM82 °FPassing clouds.12 mph62%30.12 "HgN/A
Weather by CustomWeather, © 2016

See weather overviewHow to use our weather pages